CZ-6A DEB

Satellite information

Favourite Embed

Satellite Type and Status

DEBRISIN ORBIT

Key statistics

Satellite CZ-6A DEB at a glance.

Uptime

494

Days in orbit

Revolutions

≈ 14.5

Per day

Orbit

LEO

Low Earth Orbit

Inclination

88.8

Latest

Satellite identification and parameters

Extended collection of information and parameters for CZ-6A DEB.

Object identification

Identified? True

Debris? True

Object name: CZ-6A DEB

International designator: 2024-140AAG

Object number (NORAD): 61474

Object ID (CCSDS): 61474

Country: PEOPLES REPUBLIC OF CHINA (PRC)

Current information (Y/N): Y

RCS size: SMALL

Orbital parameters

Period: 99.425 minutes

Inclination: 88.8175 deg

SMA: 7109.241 km

Apoapsis: 816.91 km

Periapsis: 645.301 km

RAAN: 282.5028 deg

Eccentricy: 0.0120694

Argument of periapsis: 243.5188 deg

Mean anomaly: 115.3598 deg

Mean motion: 14.4833137 rev/day

Mean motion (dot): 0.00006482 rev/day2

B* drag term: 0.001577227 1/REarth

Two-line elements (TLE)

Creation date: Dec. 12, 2025, 10:14 a.m.

Reference frame: TEME

Reference center: EARTH

Epoch: Dec. 12, 2025, 5:28 a.m. UTC

TLE line 0: 0 CZ-6A DEB

TLE line 1: 1 61474U 24140AAG 25346.22813796 .00006482 00000-0 15772-2 0 9995

TLE line 2: 2 61474 88.8175 282.5028 0120694 243.5188 115.3598 14.48331370 67044

Live tracking on map

Real-time ground track for satellite CZ-6A DEB.

In-orbit conjunctions

A list of the most updated potential collisions computed for object CZ-6A DEB.

Target Orbit TCA Probability of collision Miss distance Type
FENGYUN 1C DEB SSO 2025-02-20 13:16:29 0.0002120712 251.0 (m) DEBRIS
NOAA 16 DEB SSO 2025-02-03 23:50:11 0.0002327223 181.0 (m) DEBRIS
COSMOS 1680 LEO 2024-12-22 21:42:12 0.0003268666 510.0 (m) PAYLOAD
SL-14 DEB LEO 2024-11-25 11:10:57 0.0001953643 164.0 (m) DEBRIS
FENGYUN 1C DEB SSO 2024-11-20 18:06:41 0.0002436303 713.0 (m) DEBRIS

Associated space launch

18 Low Earth Orbit communication satellites with Ku, Q and V band payloads for the G60 constellation operated by Shanghai Spacecom Satellite Technology (SSST) with funding backed by the Shanghai local government. Initial constellation will consist of 1296 satellites by 2027 with long term plans to expand it to 12000 satellites.

CZ-6A DEB was lifted into orbit during the mission ‘Long March 6A | G60 Polar Group 01’, on board a Long March 6A space rocket.

The launch took place on Aug. 6, 2024, 6:42 a.m. from Launch Complex 9A.

For more information about the launch, click the button.

Launch to space Long March 6A | G60 Polar Group 01
Long March 6A | G60 Polar Group 01

Agency: N/A

Status: Launch Successful

Launch date: Aug. 6, 2024, 6:42 a.m. UTC

Rocket: Long March 6A

Launch pad: Launch Complex 9A

Location: Taiyuan Satellite Launch Center, People's Republic of China

...

Latest news about this satellite

News about space launch
Brightness of first Chinese broadband constellation satellites alarms astronomers

The first satellites of a Chinese broadband constellation are significantly brighter than those of Western systems, posing a new challenge for astronomers.

News about space launch
Chinese rocket stage breaks up into cloud of more than 700 pieces of space debris

HELSINKI — A Chinese Long March 6A rocket’s upper stage has fragmented into a cloud of over 700 pieces of space debris, adding to concerns about long-term orbital safety. China […]

News about space launch
China's Thousand Sails Megaconstellation Kicks Off with Dangerous Debris Field

China's Thousand Sails Megaconstellation Kicks Off with Dangerous Debris Field


Newsletter sign-up

Weekly statistics, charts and insights to help you stay on top of the space industry.